Regional Weather Roundup
Issued by NWS

Home | Current Version | Previous Version | Graphics & Text | Print | Product List | Glossary On
Versions: 1 2 3 4 5 6 7 8 9 10 11 12 13 14 15 16 17 18 19 20 21 22 23 24 25 26 27 28 29 30 31 32 33 34 35 36 37 38 39 40 41 42 43 44 45 46 47 48 49 50
089
ASUS45 KCYS 242310
RWRWY

WYOMING REGIONAL WEATHER ROUNDUP
NATIONAL WEATHER SERVICE CHEYENNE WY
500 PM MDT FRI MAR 24 2017

NOTE:  "FAIR" INDICATES FEW OR NO CLOUDS BELOW 12,000 FEET
WITH NO SIGNIFICANT WEATHER AND/OR OBSTRUCTIONS TO VISIBILITY.

WYZ001-250000-
YELLOWSTONE NATIONAL PARK

CITY           SKY/WX    TMP DP  RH WIND       PRES   REMARKS
LK YELLOWSTONE   N/A     42  15  33 MISG      30.08F
W YELLOWSTONE  NOT AVBL

$$
WYZ002>013-054>058-071-098>099-250000-
NORTHERN WYOMING

CITY           SKY/WX    TMP DP  RH WIND       PRES   REMARKS
JACKSON        SUNNY     48  21  34 S15G23    30.07
CODY           FAIR      61  22  22 SE15      29.94F
GREYBULL       FAIR      60  30  32 SE15      29.95F
WORLAND        FAIR      60  29  30 S14G21    29.97F
SHERIDAN       FAIR      63  27  25 SE14G22   29.91F
BUFFALO        FAIR      61  26  26 SE15      29.96F
GILLETTE       FAIR      58  27  30 S10       29.99F
HULETT         FAIR      57  27  30 SW3       30.03F
NEWCASTLE      FAIR      57  12  17 SW5       30.06S

$$
WYZ014>020-022>026-101>103-250000-
CENTRAL WYOMING

CITY           SKY/WX    TMP DP  RH WIND       PRES   REMARKS
BIG PINEY      FAIR      46  31  55 S6        30.14F
PINEDALE       FAIR      41  23  48 S3        30.17F
DUBOIS         FAIR      46  25  42 N17       30.06F
LANDER         FAIR      57  33  40 SE3       30.00F
RIVERTON       FAIR      56  24  29 VRB3      30.02F
CASPER         FAIR      56  23  27 SW8       30.05F
DOUGLAS        FAIR      57  23  26 S6        30.07F

$$
WYZ021-027>030-104>119-250000-
SOUTHERN WYOMING

CITY           SKY/WX    TMP DP  RH WIND       PRES   REMARKS
EVANSTON       FAIR      50  27  40 SW9       30.13F
KEMMERER         N/A     43  30  61 NW6       30.16S
FORT BRIDGER   FAIR      53  24  31 CALM      30.16S
ROCK SPRINGS   FAIR      51  28  41 VRB7      30.13F
DIXON            N/A     54  22  27 SW6       30.16F
RAWLINS        FAIR      53  19  26 SW16      30.12F
SARATOGA       FAIR      52  21  30 W6G18     30.14S
LARAMIE        FAIR      49  20  31 N12       30.11F
CHEYENNE       FAIR      51  22  31 N15G23    30.11F
TORRINGTON     FAIR      60  18  19 N7        30.07F
PINE BLUFFS    CLOUDY    52  28  40 NE16      30.11S

$$




USA.gov is the U.S. government's official web portal to all federal, state and local government web resources and services.